Tiempo cada hora Abapo

Hoy, 30 Octubre, Viernes

Tiempo Temperatura Precipitaciones Viento Presión Humedad
00:00 +19°C° 0 mm 2 mps 714 mmHg 58%
01:00 +19°C° 0 mm 2 mps 714 mmHg 55%
02:00 +20°C° 0 mm 2 mps 713 mmHg 52%
03:00 +20°C° 0 mm 2 mps 713 mmHg 54%
04:00 +19°C° 0 mm 2 mps 714 mmHg 55%
05:00 +19°C° 0 mm 2 mps 714 mmHg 56%
06:00 +20°C° 0 mm 2 mps 714 mmHg 52%
07:00 +20°C° 0 mm 3 mps 715 mmHg 48%
08:00 +21°C° 0 mm 3 mps 716 mmHg 44%
09:00 +24°C° 0 mm 3 mps 716 mmHg 40%
10:00 +26°C° 0 mm 3 mps 716 mmHg 35%
11:00 +28°C° 0 mm 3 mps 716 mmHg 31%
12:00 +29°C° 0 mm 3 mps 715 mmHg 29%
13:00 +30°C° 0 mm 3 mps 714 mmHg 27%
14:00 +33°C° 0 mm 3 mps 713 mmHg 25%
15:00 +31°C° 0 mm 3 mps 713 mmHg 26%
16:00 +30°C° 0 mm 4 mps 713 mmHg 27%
17:00 +30°C° 0 mm 4 mps 713 mmHg 28%
18:00 +28°C° 0 mm 3 mps 713 mmHg 33%
19:00 +25°C° 0 mm 3 mps 714 mmHg 37%
20:00 +23°C° 0 mm 2 mps 714 mmHg 41%
21:00 +21°C° 0 mm 2 mps 714 mmHg 44%
22:00 +20°C° 0 mm 2 mps 714 mmHg 46%
23:00 +19°C° 0 mm 2 mps 714 mmHg 48%

Mañana, 31 Octubre, Sábado

Tiempo Temperatura Precipitaciones Viento Presión Humedad
00:00 +19°C° 0 mm 2 mps 714 mmHg 49%
01:00 +19°C° 0 mm 1 mps 714 mmHg 49%
02:00 +19°C° 0 mm 1 mps 714 mmHg 49%
03:00 +20°C° 0 mm 1 mps 714 mmHg 47%
04:00 +20°C° 0 mm 1 mps 715 mmHg 45%
05:00 +21°C° 0 mm 1 mps 715 mmHg 44%
06:00 +21°C° 0 mm 2 mps 716 mmHg 41%
07:00 +21°C° 0 mm 2 mps 716 mmHg 39%
08:00 +22°C° 0 mm 3 mps 717 mmHg 37%
09:00 +26°C° 0 mm 3 mps 717 mmHg 32%
10:00 +28°C° 0 mm 3 mps 716 mmHg 28%
11:00 +30°C° 0 mm 3 mps 716 mmHg 23%
12:00 +31°C° 0 mm 3 mps 715 mmHg 22%
13:00 +33°C° 0 mm 3 mps 714 mmHg 21%
14:00 +34°C° 0 mm 3 mps 713 mmHg 20%
15:00 +33°C° 0 mm 3 mps 713 mmHg 21%
16:00 +33°C° 0 mm 3 mps 713 mmHg 22%
17:00 +32°C° 0 mm 4 mps 712 mmHg 23%
18:00 +29°C° 0 mm 3 mps 712 mmHg 28%
19:00 +26°C° 0 mm 2 mps 713 mmHg 34%
20:00 +23°C° 0 mm 1 mps 713 mmHg 39%
21:00 +22°C° 0 mm 1 mps 713 mmHg 41%
22:00 +21°C° 0 mm 1 mps 714 mmHg 44%
23:00 +21°C° 0 mm 1 mps 714 mmHg 46%

Pasado mañana, 1 Noviembre, Domingo

Tiempo Temperatura Precipitaciones Viento Presión Humedad
00:00 +20°C° 0 mm 1 mps 714 mmHg 47%
01:00 +20°C° 0 mm 1 mps 714 mmHg 47%
02:00 +20°C° 0 mm 1 mps 714 mmHg 48%
03:00 +19°C° 0 mm 1 mps 713 mmHg 51%
04:00 +19°C° 0 mm 1 mps 713 mmHg 53%
05:00 +18°C° 0 mm 1 mps 713 mmHg 55%
06:00 +20°C° 0 mm 2 mps 714 mmHg 47%
07:00 +23°C° 0 mm 2 mps 715 mmHg 39%
08:00 +26°C° 0 mm 3 mps 715 mmHg 30%
09:00 +28°C° 0 mm 3 mps 715 mmHg 27%
10:00 +30°C° 0 mm 3 mps 714 mmHg 24%
11:00 +34°C° 0 mm 3 mps 714 mmHg 20%
12:00 +34°C° 0 mm 3 mps 713 mmHg 19%
13:00 +35°C° 0 mm 4 mps 712 mmHg 17%
14:00 +36°C° 0 mm 4 mps 711 mmHg 16%
15:00 +35°C° 0 mm 4 mps 711 mmHg 16%
16:00 +34°C° 0 mm 4 mps 710 mmHg 17%
17:00 +34°C° 0 mm 4 mps 710 mmHg 17%
18:00 +30°C° 0 mm 3 mps 710 mmHg 22%
19:00 +27°C° 0 mm 2 mps 711 mmHg 28%
20:00 +24°C° 0 mm 1 mps 711 mmHg 33%
21:00 +23°C° 0 mm 1 mps 711 mmHg 35%
22:00 +22°C° 0 mm 1 mps 712 mmHg 37%
23:00 +21°C° 0 mm 1 mps 712 mmHg 39%

2 Noviembre, Lunes

Tiempo Temperatura Precipitaciones Viento Presión Humedad
00:00 +20°C° 0 mm 1 mps 712 mmHg 41%
01:00 +20°C° 0 mm 1 mps 712 mmHg 43%
02:00 +19°C° 0 mm 1 mps 711 mmHg 44%
03:00 +19°C° 0 mm 1 mps 711 mmHg 46%
04:00 +18°C° 0 mm 1 mps 711 mmHg 47%
05:00 +18°C° 0 mm 1 mps 711 mmHg 48%
06:00 +21°C° 0 mm 1 mps 712 mmHg 40%
07:00 +25°C° 0 mm 1 mps 713 mmHg 33%
08:00 +28°C° 0 mm 1 mps 713 mmHg 26%
09:00 +30°C° 0 mm 1 mps 713 mmHg 22%
10:00 +33°C° 0 mm 1 mps 713 mmHg 19%
11:00 +36°C° 0 mm 1 mps 713 mmHg 16%
12:00 +37°C° 0 mm 2 mps 712 mmHg 16%
13:00 +37°C° 0 mm 3 mps 711 mmHg 16%
14:00 +37°C° 0 mm 3 mps 710 mmHg 15%
15:00 +37°C° 0 mm 3 mps 710 mmHg 16%
16:00 +36°C° 0 mm 3 mps 709 mmHg 16%
17:00 +36°C° 0 mm 3 mps 709 mmHg 16%
18:00 +33°C° 0 mm 3 mps 710 mmHg 20%
19:00 +29°C° 0 mm 2 mps 710 mmHg 23%
20:00 +26°C° 0 mm 1 mps 711 mmHg 26%
21:00 +25°C° 0 mm 1 mps 711 mmHg 28%
22:00 +24°C° 0 mm 1 mps 711 mmHg 30%
23:00 +23°C° 0 mm 1 mps 712 mmHg 32%

3 Noviembre, Martes

Tiempo Temperatura Precipitaciones Viento Presión Humedad
00:00 +22°C° 0 mm 1 mps 711 mmHg 34%
01:00 +22°C° 0 mm 1 mps 711 mmHg 36%
02:00 +21°C° 0 mm 1 mps 711 mmHg 38%
03:00 +21°C° 0 mm 1 mps 711 mmHg 39%
04:00 +20°C° 0 mm 1 mps 711 mmHg 41%
05:00 +20°C° 0 mm 1 mps 710 mmHg 43%
06:00 +23°C° 0 mm 1 mps 711 mmHg 36%
07:00 +27°C° 0 mm 1 mps 712 mmHg 30%
08:00 +30°C° 0 mm 1 mps 713 mmHg 23%
09:00 +33°C° 0 mm 1 mps 713 mmHg 20%
10:00 +37°C° 0 mm 1 mps 713 mmHg 17%
11:00 +41°C° 0 mm 1 mps 713 mmHg 13%
12:00 +41°C° 0 mm 1 mps 712 mmHg 13%
13:00 +41°C° 0 mm 2 mps 711 mmHg 12%
14:00 +42°C° 0 mm 3 mps 710 mmHg 12%
15:00 +40°C° 0 mm 3 mps 709 mmHg 12%
16:00 +39°C° 0 mm 3 mps 709 mmHg 13%
17:00 +38°C° 0 mm 3 mps 709 mmHg 13%
18:00 +35°C° 0 mm 2 mps 709 mmHg 17%
19:00 +30°C° 0 mm 1 mps 709 mmHg 21%
20:00 +27°C° 0 mm 1 mps 709 mmHg 25%
21:00 +26°C° 0 mm 1 mps 710 mmHg 27%
22:00 +25°C° 0 mm 1 mps 710 mmHg 29%
23:00 +24°C° 0 mm 1 mps 711 mmHg 31%

4 Noviembre, Miércoles

Tiempo Temperatura Precipitaciones Viento Presión Humedad
00:00 +23°C° 0 mm 1 mps 710 mmHg 33%
01:00 +23°C° 0 mm 1 mps 710 mmHg 35%
02:00 +22°C° 0 mm 1 mps 710 mmHg 37%
03:00 +22°C° 0 mm 1 mps 710 mmHg 38%
04:00 +21°C° 0 mm 1 mps 710 mmHg 39%
05:00 +21°C° 0 mm 1 mps 710 mmHg 40%
06:00 +25°C° 0 mm 1 mps 710 mmHg 34%
07:00 +27°C° 0 mm 0 mps 711 mmHg 28%
08:00 +31°C° 0 mm 0 mps 712 mmHg 21%
09:00 +34°C° 0 mm 1 mps 712 mmHg 20%
10:00 +37°C° 0 mm 2 mps 711 mmHg 18%
11:00 +39°C° 0 mm 3 mps 711 mmHg 17%
12:00 +41°C° 0 mm 4 mps 710 mmHg 16%
13:00 +42°C° 0 mm 4 mps 709 mmHg 15%
14:00 +43°C° 0 mm 4 mps 708 mmHg 14%
15:00 +42°C° 0 mm 4 mps 708 mmHg 14%
16:00 +42°C° 0 mm 4 mps 708 mmHg 14%
17:00 +41°C° 0 mm 4 mps 707 mmHg 13%
18:00 +37°C° 0 mm 3 mps 707 mmHg 18%
19:00 +32°C° 0 mm 2 mps 707 mmHg 22%
20:00 +29°C° 0 mm 1 mps 707 mmHg 27%
21:00 +27°C° 0 mm 1 mps 707 mmHg 30%
22:00 +26°C° 0 mm 1 mps 708 mmHg 33%
23:00 +25°C° 0 mm 1 mps 708 mmHg 35%
Mostrar más

Necesitamos Su Consentimiento

Meteoprog y nuestros Proveedores de Servicios pueden almacenar y acceder a sus datos personales como cookies, identificadores de dispositivo u otras tecnologías similares de su dispositivo y procesar dichos datos para personalizar contenido y anuncios, además de ofrecer funciones de redes sociales y analizar el tráfico.

  • Almacenar y/o acceder a información en su dispositivo

    Se puede almacenar o acceder a cookies, identificadores de dispositivo u otra información de su dispositivo para los fines anteriormente indicados.

  • Anuncios y contenido personalizados, medición de anuncios y contenido, percepciones del público, y desarrollo de productos

    Los anuncios y el contenido pueden personalizarse en base a su perfil. Se pueden añadir más datos para personalizar mejor los anuncios y contenidos. Se puede medir el rendimiento de los anuncios y contenidos. Se puede obtener la percepción sobre el público que ha visto los anuncios y contenidos. Dichos datos pueden usarse para desarrollar o mejorar la experiencia del usuario, sistemas y software.

Al hacer clic en ‘Estoy De Acuerdo’ usted permitirá el uso de las cookies, identificadores de dispositivo, balizas web u otras tecnologías similares indicadas. Su configuración puede cambiarse desde el navegador de su dispositivo.

Para ciertos fines, los intereses legítimos pueden ser considerados por encima del consentimiento. Puede leer más sobre ello en nuestra Política de Privacidad y Cookies.